SCP
0 0 0 0 0 0 0 0 0 0 0 0 0 0 0 0 0 0 0 0 0 0 0 0 0 0 0 0 0 1 1 1
-0 0 0 0 0 0 0 0 0 0 0 0 0 0 0 0 0 0 0 0 0 0 0 0 0 0 0 0 0 0 1 1
0 0 0 0 0 0 0 0 0 0 0 0 0 0 0 0 0 0 0 0 0 0 0 0 0 0 0 0 0 0 0 0
0 0 0 0 0 0 0 0 0 0 0 0 0 0 0 0 0 0 0 0 0 0 0 0 0 0 0 0 0 0 0 0
0 0 0 0 0 0 0 0 0 0 0 0 0 0 0 0 0 0 0 0 0 0 0 0 0 0 0 -0 0 0 0 0
0 0 0 0 0 0 0 0 0 0 0 0 0 0 0 0 0 0 0 0 0 0 0 0 0 0 0 0 0 0 0 0
0 0 0 0 0 -0 -0 0 0 0 0 0 0 0 0 0 0 0 0 0 0 0 0 0 0 0 0 0 0 0 0 0
0 0 0 0 0 0 0 0 0 0 0 0 0 0 0 0 0 0 0 0 0 0 0 0 0 0 0 0 0 0 0 0
0 0 0 0 0 0 0 0 0 0 0 0 0 0 0 0 0 0 0 0 0 0 0 0 0 0 0 0 0 0 0 0
0 0 0 0 0 0 0 0 0 0 0 0 0 0 0 0 0 0 0 0 0 0 0 0 0 0 -0 0 0 0 0 0
0 0 -0 0 0 0 0 0 0 0 0 0 0 0 0 0 0 0 0 0 0 0 0 0 0 -0 -0 -0 0 0 0 0
0 0 0 -0 0 0 -0 0 0 0 0 0 0 0 0 0 0 0 0 0 0 0 0 0 0 0 -0 -0 0 0 0 0
0 0 0 0 0 -0 0 -0 0 0 0 0 0 0 0 0 0 0 0 0 0 0 -0 0 0 0 0 -0 0 0 0 0
0 0 -0 -0 -0 -0 -0 -0 -0 -0 0 0 0 0 0 0 0 0 0 0 0 0 0 0 -0 0 0 0 0 0 0 0
0 0 0 -0 -0 -0 -0 -0 -0 -0 -0 0 0 0 0 0 0 0 0 0 -0 0 0 0 0 0 0 0 0 0 0 0
0 0 0 0 0 -0 -0 0 0 -0 -0 -0 -0 -0 0 0 -0 0 0 0 0 0 0 0 0 0 0 0 0 0 0 0
0 0 0 0 0 0 0 0 0 0 -0 -0 0 -0 0 0 0 0 0 0 0 0 0 -0 0 0 0 0 0 0 0 0
0 0 0 0 0 0 0 0 0 0 0 -0 0 0 0 0 0 0 0 0 0 0 0 0 0 0 0 0 0 0 0 0
0 0 0 0 0 0 0 0 0 0 0 0 0 0 0 0 0 0 0 0 0 0 0 0 0 0 0 0 0 0 0 0
-0 -0 -0 0 0 0 0 0 0 0 0 0 0 0 0 0 0 0 0 0 0 -0 0 0 0 0 0 0 0 0 0 0
Wind_Speed_500mb
50 30 21 27 26 35 40 49 52 49 52 52 49 48 47 45 44 37 40 45 50 53 59 64 58 51 49 55 62 62 66 71
61 54 27 27 25 16 9 28 55 55 56 55 54 54 54 54 55 55 54 52 53 50 53 65 65 66 63 58 54 65 67 64
32 35 41 31 28 31 29 49 40 33 43 49 52 56 60 64 69 69 69 70 70 69 65 67 76 78 75 64 58 57 68 69
29 36 31 37 45 55 60 66 62 61 64 63 63 63 63 66 67 65 69 75 77 90 98 100 82 80 70 61 62 61 61 62
31 34 41 47 53 51 51 58 65 67 70 69 70 70 72 75 70 72 79 81 85 72 77 74 79 77 72 71 66 67 61 69
59 63 70 80 84 80 72 65 65 64 66 71 67 61 62 66 74 83 86 83 79 73 58 66 76 79 77 73 59 67 64 66
84 86 89 96 106 107 97 86 84 83 84 84 80 77 76 74 76 80 88 82 76 76 66 63 63 67 69 62 56 57 65 65
85 96 94 94 101 98 99 105 99 110 96 87 84 82 83 85 84 82 86 81 86 77 71 60 57 55 62 62 50 56 64 62
104 103 103 103 95 84 88 91 90 87 87 91 93 94 90 85 87 84 79 68 71 76 76 66 56 60 68 61 56 56 61 59
96 97 102 99 91 82 86 90 90 85 82 84 89 84 82 81 77 80 79 71 77 68 74 72 55 62 77 71 58 60 57 58
100 97 96 95 88 84 85 91 81 72 72 79 87 89 87 74 75 69 72 68 62 73 78 75 59 68 76 78 69 60 55 56
99 101 98 92 86 86 89 84 73 69 69 72 73 69 68 67 61 59 54 62 67 57 58 65 66 64 63 73 65 53 50 49
98 93 97 98 88 81 82 79 69 69 65 67 65 61 60 61 60 59 66 66 64 65 69 66 63 59 55 60 53 47 54 54
104 95 95 100 86 73 69 68 67 67 62 60 63 61 58 60 60 58 57 55 55 53 48 53 63 57 47 46 42 46 63 71
99 101 90 77 69 55 45 55 60 61 64 60 56 53 57 61 60 60 59 53 51 55 56 59 56 45 44 40 41 58 60 64
84 72 60 20 18 27 32 47 53 55 55 54 54 45 43 43 47 47 47 47 49 55 61 64 50 53 43 51 50 62 69 63
62 62 57 38 28 21 31 43 51 56 48 49 48 47 41 36 41 41 40 42 42 45 45 47 51 46 43 54 59 72 71 60
56 62 56 39 23 21 29 33 36 40 42 43 40 37 35 33 31 34 39 39 38 31 43 45 63 69 66 82 74 67 61 55
60 55 35 31 21 14 18 24 27 24 23 25 28 30 29 37 40 38 41 40 36 47 42 51 71 92 81 71 64 58 58 58
78 63 39 30 25 18 12 9 10 7 11 25 33 29 32 38 44 46 42 46 43 48 48 72 81 77 71 64 58 58 56 52
Wind_Direction_500mb
299 336 323 270 249 233 221 214 219 220 221 223 223 227 232 243 251 260 269 266 272 278 286 290 288 282 283 275 267 262 266 266
275 286 304 304 286 224 315 272 227 217 217 225 228 236 243 247 252 258 263 263 265 270 280 281 283 287 286 278 279 273 260 260
268 277 266 271 289 261 249 281 266 241 227 232 238 243 248 253 255 257 261 268 266 267 271 278 279 281 285 279 274 284 272 267
275 282 292 285 266 257 252 266 269 269 266 262 259 258 259 261 263 264 263 268 268 270 271 271 267 272 280 282 272 280 279 274
284 278 284 285 286 283 278 272 269 262 259 262 262 265 269 271 271 274 282 285 287 269 263 254 260 268 275 277 273 269 275 269
301 297 294 293 291 287 285 280 267 260 254 248 250 253 260 269 276 280 282 282 285 263 263 258 258 264 272 279 278 266 273 269
296 294 288 288 287 283 280 269 265 265 260 257 258 259 262 267 271 275 276 267 271 263 262 257 257 264 267 274 269 276 272 268
292 289 282 276 273 272 273 265 261 256 256 257 257 259 261 265 270 273 264 262 262 259 249 255 255 262 263 269 267 269 271 265
288 287 279 274 271 268 258 256 251 251 252 254 254 254 257 262 265 263 258 254 257 255 245 246 249 255 257 263 264 266 267 262
284 285 277 272 268 258 259 254 256 255 251 252 248 250 253 265 249 247 248 251 249 251 247 249 252 258 258 258 263 265 259 255
288 284 276 267 262 256 254 252 251 251 245 246 250 255 259 247 243 246 247 248 251 245 250 246 252 261 261 254 264 265 254 250
288 284 277 268 261 255 250 249 243 242 242 243 250 244 241 243 246 244 240 243 243 239 237 238 248 255 257 252 262 258 243 222
292 282 275 269 264 252 246 243 238 236 233 238 245 242 242 244 245 242 241 247 240 235 234 238 245 259 259 256 255 246 214 194
302 291 277 273 264 254 240 235 228 223 230 230 228 239 243 242 241 242 239 244 238 238 240 242 246 258 261 260 242 222 201 189
321 316 310 271 254 247 226 216 213 217 220 225 233 231 231 235 237 240 248 239 234 237 238 240 251 253 248 249 229 203 196 194
345 354 17 48 205 207 192 200 202 203 211 219 220 221 227 231 233 232 231 232 231 234 242 244 235 233 238 243 202 187 185 175
12 28 35 62 95 134 166 178 187 192 202 210 212 216 222 221 224 226 228 236 246 250 252 225 214 202 198 175 174 190 171 170
28 24 46 51 77 123 142 157 171 184 196 198 197 200 201 206 214 212 218 219 224 235 179 174 159 163 170 164 170 171 168 164
31 40 49 60 75 112 139 153 164 168 189 213 189 199 205 204 213 217 205 212 206 178 181 174 176 165 155 163 168 167 159 154
45 56 62 65 79 86 99 143 160 131 189 186 164 182 184 179 187 177 174 178 193 196 198 167 157 160 155 156 155 153 152 156
Wind_Speed_850mb
50 30 21 27 26 35 40 49 52 49 52 52 49 48 47 45 44 37 40 45 50 53 59 64 58 51 49 55 62 62 66 71
61 54 27 27 25 16 9 28 55 55 56 55 54 54 54 54 55 55 54 52 53 50 53 65 65 66 63 58 54 65 67 64
32 35 41 31 28 31 29 49 40 33 43 49 52 56 60 64 69 69 69 70 70 69 65 67 76 78 75 64 58 57 68 69
29 36 31 37 45 55 60 66 62 61 64 63 63 63 63 66 67 65 69 75 77 90 98 100 82 80 70 61 62 61 61 62
31 34 41 47 53 51 51 58 65 67 70 69 70 70 72 75 70 72 79 81 85 72 77 74 79 77 72 71 66 67 61 69
59 63 70 80 84 80 72 65 65 64 66 71 67 61 62 66 74 83 86 83 79 73 58 66 76 79 77 73 59 67 64 66
84 86 89 96 106 107 97 86 84 83 84 84 80 77 76 74 76 80 88 82 76 76 66 63 63 67 69 62 56 57 65 65
85 96 94 94 101 98 99 105 99 110 96 87 84 82 83 85 84 82 86 81 86 77 71 60 57 55 62 62 50 56 64 62
104 103 103 103 95 84 88 91 90 87 87 91 93 94 90 85 87 84 79 68 71 76 76 66 56 60 68 61 56 56 61 59
96 97 102 99 91 82 86 90 90 85 82 84 89 84 82 81 77 80 79 71 77 68 74 72 55 62 77 71 58 60 57 58
100 97 96 95 88 84 85 91 81 72 72 79 87 89 87 74 75 69 72 68 62 73 78 75 59 68 76 78 69 60 55 56
99 101 98 92 86 86 89 84 73 69 69 72 73 69 68 67 61 59 54 62 67 57 58 65 66 64 63 73 65 53 50 49
98 93 97 98 88 81 82 79 69 69 65 67 65 61 60 61 60 59 66 66 64 65 69 66 63 59 55 60 53 47 54 54
104 95 95 100 86 73 69 68 67 67 62 60 63 61 58 60 60 58 57 55 55 53 48 53 63 57 47 46 42 46 63 71
99 101 90 77 69 55 45 55 60 61 64 60 56 53 57 61 60 60 59 53 51 55 56 59 56 45 44 40 41 58 60 64
84 72 60 20 18 27 32 47 53 55 55 54 54 45 43 43 47 47 47 47 49 55 61 64 50 53 43 51 50 62 69 63
62 62 57 38 28 21 31 43 51 56 48 49 48 47 41 36 41 41 40 42 42 45 45 47 51 46 43 54 59 72 71 60
56 62 56 39 23 21 29 33 36 40 42 43 40 37 35 33 31 34 39 39 38 31 43 45 63 69 66 82 74 67 61 55
60 55 35 31 21 14 18 24 27 24 23 25 28 30 29 37 40 38 41 40 36 47 42 51 71 92 81 71 64 58 58 58
78 63 39 30 25 18 12 9 10 7 11 25 33 29 32 38 44 46 42 46 43 48 48 72 81 77 71 64 58 58 56 52
Wind_Direction_850mb
299 336 323 270 249 233 221 214 219 220 221 223 223 227 232 243 251 260 269 266 272 278 286 290 288 282 283 275 267 262 266 266
275 286 304 304 286 224 315 272 227 217 217 225 228 236 243 247 252 258 263 263 265 270 280 281 283 287 286 278 279 273 260 260
268 277 266 271 289 261 249 281 266 241 227 232 238 243 248 253 255 257 261 268 266 267 271 278 279 281 285 279 274 284 272 267
275 282 292 285 266 257 252 266 269 269 266 262 259 258 259 261 263 264 263 268 268 270 271 271 267 272 280 282 272 280 279 274
284 278 284 285 286 283 278 272 269 262 259 262 262 265 269 271 271 274 282 285 287 269 263 254 260 268 275 277 273 269 275 269
301 297 294 293 291 287 285 280 267 260 254 248 250 253 260 269 276 280 282 282 285 263 263 258 258 264 272 279 278 266 273 269
296 294 288 288 287 283 280 269 265 265 260 257 258 259 262 267 271 275 276 267 271 263 262 257 257 264 267 274 269 276 272 268
292 289 282 276 273 272 273 265 261 256 256 257 257 259 261 265 270 273 264 262 262 259 249 255 255 262 263 269 267 269 271 265
288 287 279 274 271 268 258 256 251 251 252 254 254 254 257 262 265 263 258 254 257 255 245 246 249 255 257 263 264 266 267 262
284 285 277 272 268 258 259 254 256 255 251 252 248 250 253 265 249 247 248 251 249 251 247 249 252 258 258 258 263 265 259 255
288 284 276 267 262 256 254 252 251 251 245 246 250 255 259 247 243 246 247 248 251 245 250 246 252 261 261 254 264 265 254 250
288 284 277 268 261 255 250 249 243 242 242 243 250 244 241 243 246 244 240 243 243 239 237 238 248 255 257 252 262 258 243 222
292 282 275 269 264 252 246 243 238 236 233 238 245 242 242 244 245 242 241 247 240 235 234 238 245 259 259 256 255 246 214 194
302 291 277 273 264 254 240 235 228 223 230 230 228 239 243 242 241 242 239 244 238 238 240 242 246 258 261 260 242 222 201 189
321 316 310 271 254 247 226 216 213 217 220 225 233 231 231 235 237 240 248 239 234 237 238 240 251 253 248 249 229 203 196 194
345 354 17 48 205 207 192 200 202 203 211 219 220 221 227 231 233 232 231 232 231 234 242 244 235 233 238 243 202 187 185 175
12 28 35 62 95 134 166 178 187 192 202 210 212 216 222 221 224 226 228 236 246 250 252 225 214 202 198 175 174 190 171 170
28 24 46 51 77 123 142 157 171 184 196 198 197 200 201 206 214 212 218 219 224 235 179 174 159 163 170 164 170 171 168 164
31 40 49 60 75 112 139 153 164 168 189 213 189 199 205 204 213 217 205 212 206 178 181 174 176 165 155 163 168 167 159 154
45 56 62 65 79 86 99 143 160 131 189 186 164 182 184 179 187 177 174 178 193 196 198 167 157 160 155 156 155 153 152 156